Погода Викулово

Погода Викулово : погода сейчас, прогноз погоды и архив. Всё, что Вы хотите узнать о погоде Викулово!

Поиск расширенной информации на нашем сайте:

Другие новости

Новости СМИ2

Главная страница сайта

Новости сайта

03.07.2017

Напоминаем, что на нашем специализированном сайте Метеоцентр.Азия вы можете получить высокодетализированные автоматические прогнозы погоды по пунктам России, СНГ и мира в авиационном формате (включающие направление и скорость ветра, видимость, явления погоды, количество и форму облачности, нижнюю и верхнюю границу облачности).


Погода Викулово - сегодня

Время (UTC), дата Ветер
(°,м/с) 
Видим.   Явления Облачность Т
(°С)
Тd
(°С)
f(%) Тe
(°С)
Pmin
(гПа)
dP
(гПа)
Po
(мм)
O2
(г/м3)
Тmin Tmax R s Состояние
почвы
06 20.02.18 190 (Ю) 20000 м    10/0 верхняя 
[Cs]
-10.2 -15 68 -14  1028.6  -1.1  764  321           
09 20.02.18 190 (Ю) 20000 м    10/0 средняя 
[As op]
-8.1 -14.5 60 -11  1028.1  -0.4  763  318           
12 20.02.18 170 (Ю) 20000 м    10/0 средняя 
[As op]
-8.1 -14.1 62 -10  1026.7  -1.4  762  318           
18 20.02.18 170 (Ю) 20000 м    10/0 средняя 
[As op]
-9.6 -14.8 66 -13  1023  -2  760  319           
21 20.02.18 160 (Ю) 20000 м    10/0 средняя 
[As op]
-11.2 -15.3 72 -14  1021.5  -1.6  758  320           
00 21.02.18 150 (ЮВ) 20000 м    4/0 верхняя 
[Cs]
-12.1 -16 73 -14  1019.7  -1.8  757  321           
03 21.02.18 130 (ЮВ) 10 км    10/0 средняя 
[Ac As]
-12.3 -16.1 73 -16  1017.6  -2.1  756  320  -12.7      26  равномерный
сухой снег
100% 
06 21.02.18 110 (В) 20000 м    10/0 средняя 
[Ac As]
-8.6 -15.7 56 -10  1015.2  -2.3  754  315           
09 21.02.18 120 (ЮВ) 20000 м    10/0 средняя 
[As op]
-6 -16.9 42 -9  1012.2  -2.9  752  311           
12 21.02.18 120 (ЮВ) 20000 м    8/0 средняя, верхняя 
[Ac lent|Cc]
-6.3 -15.6 48 -9  1009.6  -2.6  750  311           
15 21.02.18 150 (ЮВ) 20000 м    10/0 средняя 
[Ac As]
-7.3 -14.1 58 -9  1008.3  -1.2  749  311    -5.7       
18 21.02.18 180 (Ю) 20000 м    10/0 средняя 
[Ac As]
-8 -13.3 66 -10  1008.4  749  312           
21 21.02.18 260 (З) 20000 м    10/0 средняя 
[Ac As]
-9.4 -14.5 66 -12  1009.5  1.1  750  314           
00 22.02.18 270 (З) 20000 м    9/0 средняя 
[Ac trans]
-10.1 -13.3 77 -12  1011.7  2.1  751  316           
03 22.02.18 240 (ЮЗ) 10 км  {снег}  5/5 600 м 
[Sc]
-11.4 -14.5 78 -13  1013.7  753  318  -11.4    0.0  26  равномерный
сухой снег
100% 
06 22.02.18 230 (ЮЗ) 10 км  {снег}  ясно 
-9.9 -15.1 66 -13  1015.4  1.7  754  317  -12.2         
09 22.02.18 240 (ЮЗ) 10 км    4/3 600 м верхняя 
[Cu hum|Ci sp]
-7.4 -12.8 65 -11  1015.6  0.3  754  314           
12 22.02.18 190 (Ю) 10 км    6/0 верхняя 
[Cs]
-8.9 -14 66 -11  1016  0.3  754  315           
15 22.02.18 200 (Ю) 4000 м  слаб. снег  9/0 средняя, верхняя 
[As trans|Cs]
-10.8 -13.5 80 -11  1015.9  -0.1  754  318    -6.6  0.0     
18 22.02.18 210 (ЮЗ) 4000 м  слаб. снег  9/0 средняя 
[Ac As]
-11.1 -13.2 84 -13  1015.8  0.1  754  318           
21 22.02.18 220 (ЮЗ) 10 км  {снег}  ясно 
-14.1 -16.2 84 -16  1016.6  0.7  755  322           
00 23.02.18 200 (Ю) 4000 м  слаб. снег  10/0 средняя 
[As op]
-16.2 -18.6 82 -19  1018.1  1.3  756  325           
03 23.02.18 190 (Ю) 4000 м  слаб. снег  10/0 средняя, верхняя 
[As trans|Cs]
-17.5 -20.1 80 -20  1019.1  0.9  756  327  -17.5    0.2  26  равномерный
сухой снег
100% 
06 23.02.18 200 (Ю) 4000 м  слаб. снег  10/0 средняя 
[As op]
-13.6 -16.6 78 -16  1019.4  0.5  757  322           
09 23.02.18 210 (ЮЗ) 10 км  {снег}  10/0 верхняя 
[Cs]
-10.6 -16.4 62 -14  1019.3  757  319           
Время (UTC), дата Ветер
(°,м/с) 
Видим.   Явления Облачность Т
(°С)
Тd
(°С)
f(%) Тe
(°С)
Pmin
(гПа)
dP
(гПа)
Po
(мм)
O2
(г/м3)
Тmin Tmax R s Состояние
почвы

Для получения пояснительной информации подведите курсор к названию столбца.

ПОГОДА Викулово - архив

Всё, что Вы хотите узнать о погоде Викулово - удобно и подробно!

Выберите нужную дату (начиная с 1 января 2015* года) и нажмите кнопку "Найти".
Будут отображены архивные сводки погоды по пункту Викулово, начиная с указанной даты.


Отображать данные в формате CSV (для использования в таблицах Excel)


Внимание! Наш архив погоды предназначен исключительно для личного некоммерческого использования в познавательных целях. Если Вам необходимы официальные справки о состоянии погоды (для производственных, юридических, коммерческих и т.п. целей), обращайтесь в органы Росгидромета.

*Примечание: данная дата относится к архиву по метеостанциям СССР (Россия, СНГ, Балтия).
Архив по метеостанциям Зарубежной Европы и Азии (кроме Китая) хранится 10 дней, по другим регионам земного шара (Китай, Африка, Америка, Австралия, Океания) - 1 день.

Викулово - район местоположения метеостанции


Название, широта, долгота, высота метеостанции:
Викулово 56.8°ш. 70.6°д. 78 м над ур. моря [Российская Федерация]

Дополнительная информация

В oтличие oт бoльшинства пoгoдных сайтoв мы публикуем пoдрoбную метеoинфoрмацию в детальнoм прoфессиoнальнoм фoрмате.

Характеристики температуры и влажнoсти вoздуха измеряются на высoте 2 м в тени вдали oт зданий и деревьев.
Скoрoсть ветра измеряется на высoте 10 м (на урoвне рoста челoвека скoрoсть ветра ниже в 1.5-2 раза). Если метеoстанция нахoдится в гoрoде или в лесу, тo скoрoсть ветра занижена на 2-4 м/с пo сравнению с oткрытым местoм. Скoрoсть ветра над акватoриями крупных рек и oзёр, а также на вершинах хoлмoв на 2-5 м/с выше, чем в oбычных услoвиях.
Атмoсфернoе давление в разных тoчках местнoсти мoжет значительнo oтличаться oт давления на метеoстанции, в зависимoсти oт услoвий рельефа (при пoдъёме на 10 м давление пoнижается примернo на 1 мм рт.ст.).